GAOFEN-12 01

Last updated on Tue Jul 08 2025 00:02:30 GMT+0000 (Coordinated Universal Time)

1 44819U 19082A 25188.59455698 .00000328 00000+0 49607-4 0 9993 2 44819 97.8130 198.9911 0003908 63.0151 297.1461 14.80422400303102
UTC large
Height (km)
Speed (km/s)
/
Latitude / Longitude
Inclination (degrees)
Orbital Period (minutes)
Azimuth
Elevation
Range (km)
Doppler Factor

Next 0 passes for location: London (51.5072 / 0.1276)

Sorry there are no passes over London.